091  
ASUS44 KMAF 271710  
RWRMAF  
MIDLAND AREA WEATHER ROUNDUP  
NATIONAL WEATHER SERVICE MIDLAND TX  
1200 PM CDT SAT MAY 27 2017  
   
..IN SOUTHWEST TEXAS AND SOUTHEAST NEW MEXICO
 
 
 
CITY SKY/WX TMP DP RH WIND PRES REMARKS
 
ALPINE SUNNY 89 29 11 NW9G17 30.13S  
ANDREWS FAIR 91 31 11 W18G24 29.96S  
ARTESIA SUNNY 86 30 13 VRB5G16 29.99S  
BIG SPRING SUNNY 91 46 21 NW3 29.93S  
CARLSBAD SUNNY 89 25 10 W30G38 29.97F  
DRYDEN N/A 90 66 45 MISG 29.92S  
FORT STOCKTON SUNNY 94 35 12 W20G28 29.98S  
GUAD PASS SUNNY 81 32 17 W40G47 30.11F  
HOBBS SUNNY 88 25 10 W16G24 29.99F  
MARFA SUNNY 86 30 13 W21G31 30.13S  
MIDLAND AIRPK SUNNY 96 32 10 W14G23 29.94S  
MIDLAND INTL SUNNY 95 33 11 NW16G26 29.94S  
ODESSA SUNNY 93 29 10 W17G25 29.96S  
PECOS SUNNY 93 32 11 W17G30 29.94F  
PRESIDIO FAIR 96 37 13 W15G24 30.00S  
SEMINOLE SUNNY 90 30 11 NW16G24 29.97S  
SNYDER SUNNY 90 52 27 W5 29.89F  
WINK SUNNY 93 25 8 W17G26 29.94S  

   
..OTHER STATIONS IN TEXAS
 
 
 
CITY SKY/WX TMP DP RH WIND PRES REMARKS
 
ABILENE SUNNY 88 72 58 SW20G25 29.87F  
AMARILLO SUNNY 77 49 37 NW16 29.95S  
AUSTIN CLOUDY 88 74 63 S17 29.89F FOG  
BROWNSVILLE MOSUNNY 94 75 54 S21G30 29.89F HX 105  
CORPUS CHRISTI PTSUNNY 88 78 72 S21G28 29.89F HX 101  
DALLAS FTW PTSUNNY 89 75 63 S20 29.83S  
DEL RIO CLOUDY 82 76 81 SE3 29.88R  
EL PASO MOSUNNY 84 33 16 W13G25 30.05F  
HOUSTON INT PTSUNNY 89 74 60 S14G21 29.94S  
LUBBOCK MOSUNNY 91 14 6 NW10G23 29.93S  
SAN ANGELO SUNNY 92 66 42 SW13G21 29.89S  
SAN ANTONIO PTSUNNY 87 73 62 S15 29.90F HAZE  
WACO CLOUDY 85 74 69 S16 29.88S HAZE  
WICHITA FALLS NOT AVBL  

   
..OTHER LOCATIONS IN NEW MEXICO
 
 
 
CITY SKY/WX TMP DP RH WIND PRES REMARKS
 
ALAMOGORDO SUNNY 81 25 12 W16 30.08S  
ALBUQUERQUE MOSUNNY 73 17 12 W14 30.10S  
CANNON AFB SUNNY 82 20 10 NW9G23 30.01R  
CLOVIS SUNNY 82 25 12 W17 29.99R  
HOLLOMAN AFB SUNNY 82 23 11 SW16G26 30.09F  
ROSWELL SUNNY 87 24 10 VRB3 29.97F  
RUIDOSO SUNNY 72 18 13 NW8 30.18S  
SANTA FE SUNNY 71 22 15 SW16G24 30.10S  
TRUTH OR CONSE SUNNY 78 22 12 VRB5 30.08F  
TUCUMCARI SUNNY 82 19 9 CALM 29.94S  

 
 
 
CLICK HERE TO GO TO PREVIOUS BULLETINS.

The Nexlab TX Page
The Nexlab NM Page Main Text Page